Back to catalog

CZ-6A DEB

AliveSSO
NORAD 56630·DEBRIS·🇨🇳 China

Launched Nov 11, 2022 from Taiyuan Satellite Launch Center

Loading…

Next Passes (next 24 hours)

TLE

AgingSource: Space-Track

Epoch: Sep 10, 2026, 05:18 UTC

1 56630U 22151AFE 26253.22138496  .00001013  00000-0  55281-3 0  9993
2 56630  98.8478 253.1324 0054160  97.1303 263.6032 14.13580286173961

Track CZ-6A DEB in real time with AllMySat

Download on the App Store